Tucson, AZ

8:19 PM MST on October 20, 2019 (GMT -0700)
Tucson International

Weather History for KTUS - August, 2019

Change the Weather History Date:

Thursday, August 22, 2019

  Actual Average Record
Temperature  
Mean Temperature 91 °F 85 °F  
Max Temperature 105 °F 98 °F 110 °F (1930)
Min Temperature 76 °F 73 °F 62 °F (1895)
Degree Days  
Heating Degree Days 0 0  
Month to date heating degree days 0 0  
Since 1 June heating degree days 0 0  
Since 1 July heating degree days 0 0  
Cooling Degree Days 26 20  
Month to date cooling degree days 550 446  
Year to date cooling degree days 2327 2225  
Since 1 June cooling degree days 1955 1723  
Growing Degree Days 41 (Base 50)    
Moisture  
Dew Point 57 °F    
Average Humidity 37    
Maximum Humidity 64    
Minimum Humidity 9    
Precipitation  
Precipitation T in 0.07 in 2.48 in (1961)
Month to date precipitation 1.15 1.77  
Year to date precipitation 7.25 7.29  
Sea Level Pressure  
Sea Level Pressure 29.77 in    
Wind  
Wind Speed 10 mph (SSW)    
Max Wind Speed 26 mph    
Max Gust Speed 36 mph    
Visibility 10 miles    
Events Thunderstorm    
T = Trace of Precipitation, MM = Missing Value Source: NWS Daily Summary

Daily Weather History Graph

Daily Weather History Graph

Search for Another Location

Airport or City:

Astronomy

Aug. 22, 2019 Rise Set
Actual Time 5:52 AM MST 7:00 PM MST
Civil Twilight 5:27 AM MST 7:25 PM MST
Nautical Twilight 4:56 AM MST 7:55 PM MST
Astronomical Twilight 4:25 AM MST 8:26 PM MST
Moon 11:16 PM MST (8/22) 12:08 PM MST (8/22)
Length of Visible Light 13h 58m
Length of Day
13h 07m
Waning Gibbous, 58% of the Moon is Illuminated
Aug 22
Waning Gibbous
Aug 23
Last Quarter
Aug 30
New
Sep 5
First Quarter
Sep 13
Full

Hourly Weather History & Observations

Time (MST) Temp. Heat Index Dew Point Humidity Pressure Visibility Wind Dir Wind Speed Gust Speed Precip Events Conditions
12:29 AM 88.0 °F - 52.0 °F 29% 29.88 in 10.0 mi South 13.8 mph - N/A   Clear
12:53 AM 87.1 °F 84.9 °F 53.1 °F 31% 29.71 in 10.0 mi South 11.5 mph - N/A   Clear
1:53 AM 84.9 °F - 52.0 °F 32% 29.71 in 10.0 mi ESE 11.5 mph - N/A   Clear
2:53 AM 84.9 °F 83.3 °F 54.0 °F 34% 29.72 in 10.0 mi SSE 8.1 mph - N/A   Clear
3:53 AM 84.9 °F 83.7 °F 55.9 °F 37% 29.73 in 10.0 mi SSW 9.2 mph - N/A   Clear
4:53 AM 82.9 °F 82.6 °F 57.9 °F 42% 29.74 in 10.0 mi SSE 5.8 mph - N/A   Clear
5:53 AM 82.9 °F 82.8 °F 59.0 °F 44% 29.77 in 10.0 mi SE 8.1 mph - N/A   Clear
6:53 AM 84.0 °F 84.4 °F 61.0 °F 46% 29.78 in 10.0 mi SE 9.2 mph - N/A   Clear
7:53 AM 86.0 °F 86.8 °F 63.0 °F 46% 29.78 in 10.0 mi South 9.2 mph - N/A   Clear
8:53 AM 89.1 °F 90.0 °F 63.0 °F 42% 29.77 in 10.0 mi SSW 15.0 mph - N/A   Clear
9:53 AM 91.9 °F 92.5 °F 62.1 °F 37% 29.76 in 10.0 mi SSW 9.2 mph - N/A   Clear
10:53 AM 96.1 °F 95.6 °F 59.0 °F 29% 29.75 in 10.0 mi SE 4.6 mph - N/A   Clear
11:53 AM 98.1 °F 96.4 °F 55.9 °F 24% 29.74 in 10.0 mi NNW 5.8 mph - N/A   Clear
12:53 PM 100.9 °F - 48.9 °F 17% 29.72 in 10.0 mi NW 11.5 mph 17.3 mph N/A   Clear
1:53 PM 102.9 °F - 48.9 °F 16% 29.69 in 10.0 mi WNW 10.4 mph - N/A   Clear
2:53 PM 102.0 °F - 48.0 °F 16% 29.65 in 10.0 mi Variable 5.8 mph - N/A   Clear
3:53 PM 102.0 °F - 48.0 °F 16% 29.62 in 10.0 mi West 5.8 mph - N/A   Partly Cloudy
4:53 PM 100.9 °F - 46.9 °F 16% 29.62 in 10.0 mi NW 11.5 mph - N/A   Clear
5:53 PM 98.1 °F - 51.1 °F 20% 29.63 in 10.0 mi West 11.5 mph 23.0 mph N/A Thunderstorm Clear
6:35 PM 93.0 °F - 52.0 °F 25% 29.84 in 10.0 mi SSW 20.7 mph 35.7 mph N/A Thunderstorm Mostly Cloudy
6:42 PM 87.1 °F 85.9 °F 57.0 °F 36% 29.85 in 10.0 mi South 23.0 mph 35.7 mph N/A Thunderstorm Thunderstorm
6:53 PM 86.0 °F 84.9 °F 57.0 °F 37% 29.72 in 10.0 mi SSW 15.0 mph 21.9 mph N/A Thunderstorm Thunderstorm
7:18 PM 86.0 °F 84.9 °F 57.0 °F 37% 29.87 in 10.0 mi West 15.0 mph - N/A Thunderstorm Thunderstorm
7:20 PM 86.0 °F 84.9 °F 57.0 °F 37% 29.86 in 10.0 mi West 13.8 mph - N/A   Scattered Clouds
7:53 PM 84.9 °F 84.4 °F 59.0 °F 41% 29.72 in 10.0 mi WSW 13.8 mph 24.2 mph 0.00 in   Partly Cloudy
8:16 PM 82.0 °F 83.0 °F 62.1 °F 51% 29.88 in 10.0 mi West 12.7 mph 26.5 mph N/A Thunderstorm Partly Cloudy
8:31 PM 77.0 °F - 64.0 °F 64% 29.89 in 10.0 mi West 11.5 mph - N/A   Scattered Clouds
8:53 PM 77.0 °F - 64.0 °F 64% 29.79 in 10.0 mi WSW 10.4 mph 19.6 mph N/A Thunderstorm Thunderstorm
9:53 PM 78.1 °F - 64.0 °F 62% 29.78 in 10.0 mi WSW 13.8 mph - 0.00 in Thunderstorm Thunderstorm
10:05 PM 81.0 °F 81.9 °F 62.1 °F 52% 29.96 in 10.0 mi SW 6.9 mph - N/A Thunderstorm Thunderstorm
10:12 PM 80.1 °F 81.5 °F 63.0 °F 56% 29.95 in 10.0 mi East 11.5 mph 20.7 mph N/A Thunderstorm Clear
10:53 PM 81.0 °F 82.2 °F 63.0 °F 54% 29.78 in 10.0 mi SE 15.0 mph - N/A Thunderstorm Clear
11:53 PM 79.0 °F - 64.0 °F 60% 29.76 in 10.0 mi South 11.5 mph - N/A   Clear